{"data":{"norad_id":48094,"intl_designator":"2021-027C","name":"STARLINK-2412","alt_names":[],"object_type":"PAYLOAD","status":"ACTIVE","operator":null,"country":"US","launch_date":"2021-04-07","launch_site_code":"AFETR","launch_vehicle":null,"mission":null,"orbit_class":"UNKNOWN","rcs_meters":null,"size_class":null,"mass_kg":null,"dimensions":null,"purposes":["comms"],"wikipedia_slug":null,"has_3d_model":false,"image_url":null,"decayed_at":null,"tle_current":{"epoch":"2026-09-19T17:15:34.249824Z","epoch_age_seconds":96700,"freshness":"FRESH","line1":"1 48094U 21027C   26262.71914641  .00002058  00000+0  78013-4 0  9995","line2":"2 48094  53.1611 342.7665 0001078  72.0689 288.0430 15.31714255302245","mean_motion":15.31714255,"eccentricity":0.0001078,"inclination_deg":53.1611,"raan_deg":342.7665,"arg_perigee_deg":72.0689,"mean_anomaly_deg":288.043,"bstar":7.8013e-5,"rev_number":30224,"period_min":94.012313021139,"perigee_km":469.95919778264,"apogee_km":471.43580650131,"semimajor_km":6848.834502142,"source":"CELESTRAK","updated_at":"2026-09-20T09:00:38.761032Z"}}}